Location: Newark
(21.1200°N, 73.4000°E)
Time: 02:48:12
(UTC+00:00)

Explorer 11/Cluster Stage 4 - Pass Details

Date: 25 January 2020
Orbit: 467 x 1259 km, 28.8° (Epoch: 19 February)

Event Time Altitude Azimuth Distance (km) Brightness Sun altitude
Rises 12:03:36 0° 288° (WNW) 4,098 11.1 9.6°
Reaches altitude 10° 12:06:46 10° 293° (WNW) 3,055 10.3 8.9°
Maximum altitude 12:14:03 49° 6° (N) 1,295 7.6 7.3°
Drops below altitude 10° 12:20:03 10° 81° (E) 2,528 8.6 6.1°
Sets 12:22:28 0° 87° (E) 3,342 9.2 5.5°
